TimeCDT,TemperatureF,Dew PointF,Humidity,Sea Level PressureIn,VisibilityMPH,Wind Direction,Wind SpeedMPH,Gust SpeedMPH,PrecipitationIn,Events,Conditions,WindDirDegrees,DateUTC
12:15 AM,82.4,77.2,84,29.94,10.0,Calm,Calm,-,N/A,,Clear,0,2013-06-15 05:15:00
12:35 AM,82.2,77.2,85,29.94,10.0,SE,9.2,-,N/A,,Scattered Clouds,140,2013-06-15 05:35:00
12:55 AM,81.9,77.0,85,29.94,10.0,Calm,Calm,-,N/A,,Clear,0,2013-06-15 05:55:00
1:15 AM,81.7,77.2,86,29.93,10.0,SE,6.9,-,N/A,,Clear,140,2013-06-15 06:15:00
1:35 AM,81.5,77.0,86,29.92,10.0,Calm,Calm,-,N/A,,Clear,0,2013-06-15 06:35:00
1:55 AM,81.5,77.0,86,29.92,10.0,SE,4.6,-,N/A,,Clear,140,2013-06-15 06:55:00
2:15 AM,81.1,77.0,87,29.91,10.0,Calm,Calm,-,N/A,,Clear,0,2013-06-15 07:15:00
2:35 AM,81.0,77.0,88,29.90,10.0,Calm,Calm,-,N/A,,Clear,0,2013-06-15 07:35:00
2:55 AM,81.0,76.8,87,29.90,10.0,Calm,Calm,-,N/A,,Clear,0,2013-06-15 07:55:00
3:15 AM,80.8,76.8,88,29.90,10.0,Calm,Calm,-,N/A,,Clear,0,2013-06-15 08:15:00
3:35 AM,80.2,76.5,88,29.90,10.0,Calm,Calm,-,N/A,,Clear,0,2013-06-15 08:35:00
3:55 AM,80.6,76.8,88,29.90,10.0,Calm,Calm,-,N/A,,Clear,0,2013-06-15 08:55:00
4:15 AM,80.6,76.8,88,29.90,10.0,Calm,Calm,-,N/A,,Clear,0,2013-06-15 09:15:00
4:35 AM,80.6,76.6,88,29.89,10.0,SSE,3.5,-,N/A,,Clear,160,2013-06-15 09:35:00
4:55 AM,80.2,76.6,89,29.90,10.0,Calm,Calm,-,N/A,,Clear,0,2013-06-15 09:55:00
5:15 AM,80.1,76.5,89,29.91,10.0,Calm,Calm,-,N/A,,Clear,0,2013-06-15 10:15:00
5:35 AM,79.9,76.5,89,29.91,10.0,Calm,Calm,-,N/A,,Clear,0,2013-06-15 10:35:00
5:55 AM,79.9,76.3,89,29.91,10.0,Calm,Calm,-,N/A,,Clear,0,2013-06-15 10:55:00
6:15 AM,79.7,76.1,89,29.92,10.0,Calm,Calm,-,N/A,,Clear,0,2013-06-15 11:15:00
6:35 AM,79.3,76.1,90,29.92,10.0,Calm,Calm,-,N/A,,Clear,0,2013-06-15 11:35:00
6:55 AM,79.3,76.1,90,29.92,10.0,Calm,Calm,-,N/A,,Clear,0,2013-06-15 11:55:00
7:15 AM,79.7,76.1,89,29.93,10.0,Calm,Calm,-,N/A,,Clear,0,2013-06-15 12:15:00
7:35 AM,80.2,76.3,88,29.95,10.0,Calm,Calm,-,N/A,,Clear,0,2013-06-15 12:35:00
7:55 AM,81.0,76.5,86,29.95,10.0,Calm,Calm,-,N/A,,Clear,0,2013-06-15 12:55:00
8:15 AM,81.9,76.6,84,29.96,10.0,Calm,Calm,-,N/A,,Clear,0,2013-06-15 13:15:00
8:35 AM,82.8,76.6,82,29.97,10.0,SSE,9.2,-,N/A,,Clear,150,2013-06-15 13:35:00
8:55 AM,83.8,76.1,77,29.97,10.0,South,13.8,-,N/A,,Scattered Clouds,170,2013-06-15 13:55:00
9:15 AM,86.5,74.8,68,29.97,10.0,South,13.8,-,N/A,,Mostly Cloudy,180,2013-06-15 14:15:00
9:35 AM,86.2,73.8,66,29.97,10.0,SSE,12.7,-,N/A,,Mostly Cloudy,160,2013-06-15 14:35:00
9:55 AM,86.4,74.3,67,29.97,10.0,South,11.5,-,N/A,,Scattered Clouds,190,2013-06-15 14:55:00
10:15 AM,87.8,72.7,61,29.97,10.0,South,12.7,-,N/A,,Scattered Clouds,180,2013-06-15 15:15:00
10:35 AM,88.9,71.4,56,29.97,10.0,South,15.0,-,N/A,,Clear,170,2013-06-15 15:35:00
10:55 AM,89.4,72.9,58,29.97,10.0,South,6.9,-,N/A,,Scattered Clouds,170,2013-06-15 15:55:00
11:15 AM,89.4,72.7,58,29.96,10.0,South,12.7,18.4,N/A,,Scattered Clouds,180,2013-06-15 16:15:00
11:35 AM,91.2,72.5,54,29.96,10.0,South,10.4,16.1,N/A,,Scattered Clouds,170,2013-06-15 16:35:00
11:55 AM,93.0,71.1,49,29.96,10.0,SE,8.1,16.1,N/A,,Scattered Clouds,140,2013-06-15 16:55:00
12:15 PM,93.9,72.0,49,29.96,10.0,South,11.5,18.4,N/A,,Scattered Clouds,170,2013-06-15 17:15:00
12:35 PM,93.9,72.0,49,29.95,10.0,SE,10.4,-,N/A,,Scattered Clouds,140,2013-06-15 17:35:00
12:55 PM,95.0,70.5,45,29.94,10.0,SE,11.5,-,N/A,,Scattered Clouds,140,2013-06-15 17:55:00
1:15 PM,95.2,70.2,44,29.94,10.0,South,11.5,19.6,N/A,,Scattered Clouds,170,2013-06-15 18:15:00
1:35 PM,96.1,69.4,42,29.94,10.0,SE,10.4,16.1,N/A,,Scattered Clouds,140,2013-06-15 18:35:00
1:55 PM,97.0,68.5,39,29.93,10.0,SSE,13.8,19.6,N/A,,Scattered Clouds,160,2013-06-15 18:55:00
2:15 PM,96.8,69.3,41,29.92,10.0,SE,12.7,19.6,N/A,,Scattered Clouds,130,2013-06-15 19:15:00
2:35 PM,96.6,68.9,40,29.92,10.0,ESE,11.5,20.7,N/A,,Mostly Cloudy,120,2013-06-15 19:35:00
2:55 PM,95.9,69.1,42,29.92,10.0,SE,16.1,23.0,N/A,,Scattered Clouds,130,2013-06-15 19:55:00
3:15 PM,96.3,67.8,39,29.91,10.0,ESE,13.8,23.0,N/A,Rain,Light Rain,110,2013-06-15 20:15:00
3:35 PM,96.6,67.5,38,29.90,10.0,SE,11.5,19.6,N/A,,Clear,140,2013-06-15 20:35:00
3:55 PM,95.9,67.8,40,29.90,10.0,SE,13.8,20.7,N/A,,Clear,130,2013-06-15 20:55:00
4:15 PM,95.9,68.5,41,29.89,10.0,SE,16.1,20.7,N/A,Rain,Rain,130,2013-06-15 21:15:00
4:35 PM,95.7,69.4,42,29.89,10.0,SE,15.0,20.7,N/A,,Clear,140,2013-06-15 21:35:00
4:55 PM,95.5,69.3,42,29.89,10.0,SE,13.8,23.0,N/A,Rain,Light Rain,130,2013-06-15 21:55:00
5:15 PM,94.1,70.5,46,29.89,10.0,ESE,18.4,25.3,N/A,,Clear,120,2013-06-15 22:15:00
5:35 PM,93.7,70.3,46,29.89,10.0,ESE,19.6,23.0,N/A,,Clear,120,2013-06-15 22:35:00
5:55 PM,92.5,70.3,48,29.89,10.0,ESE,15.0,23.0,N/A,,Clear,120,2013-06-15 22:55:00
6:15 PM,92.1,71.1,50,29.88,10.0,ESE,17.3,23.0,N/A,,Clear,120,2013-06-15 23:15:00
6:35 PM,91.4,71.4,52,29.88,10.0,ESE,17.3,25.3,N/A,,Clear,120,2013-06-15 23:35:00
6:55 PM,90.5,72.1,55,29.89,10.0,ESE,19.6,23.0,N/A,,Clear,120,2013-06-15 23:55:00
7:15 PM,89.1,73.2,59,29.89,10.0,SE,19.6,24.2,N/A,,Clear,130,2013-06-16 00:15:00
7:35 PM,88.2,72.7,60,29.89,10.0,SE,18.4,-,N/A,,Clear,140,2013-06-16 00:35:00
7:55 PM,87.3,72.5,61,29.90,10.0,SE,16.1,-,N/A,,Clear,140,2013-06-16 00:55:00
8:15 PM,86.4,73.0,64,29.90,10.0,SE,15.0,21.9,N/A,Rain,Rain,140,2013-06-16 01:15:00
8:35 PM,85.6,72.7,65,29.91,10.0,SE,15.0,19.6,N/A,Rain,Rain,130,2013-06-16 01:35:00
8:55 PM,85.1,73.6,68,29.91,10.0,SE,15.0,-,N/A,,Clear,140,2013-06-16 01:55:00
9:15 PM,84.6,74.7,72,29.92,10.0,SE,16.1,19.6,N/A,Rain,Rain,140,2013-06-16 02:15:00
9:35 PM,84.2,75.0,74,29.93,10.0,SE,11.5,-,N/A,,Clear,140,2013-06-16 02:35:00
9:55 PM,83.8,75.2,75,29.93,10.0,SE,13.8,-,N/A,,Clear,140,2013-06-16 02:55:00
10:15 PM,83.5,75.2,76,29.94,10.0,SE,13.8,-,N/A,,Clear,140,2013-06-16 03:15:00
10:35 PM,83.3,75.2,76,29.95,10.0,SE,11.5,-,N/A,,Clear,140,2013-06-16 03:35:00
10:55 PM,82.9,75.6,78,29.95,10.0,SSE,11.5,-,N/A,,Clear,150,2013-06-16 03:55:00
11:15 PM,82.8,75.6,79,29.96,10.0,SE,8.1,-,N/A,,Clear,140,2013-06-16 04:15:00
11:35 PM,82.6,75.7,80,29.96,10.0,SSE,12.7,-,N/A,,Clear,150,2013-06-16 04:35:00
11:55 PM,82.4,75.6,80,29.96,10.0,SSE,10.4,-,N/A,,Clear,150,2013-06-16 04:55:00